When you browse on this site, cookies collect data to enhance your experience and personalize the content and advertising you see.
Visit our Privacy Policy to learn more. By continuing to use the site, you agree to this use of cookies and data.
  • In Germany
  • List of Countries
  • For 7 days
  • Water Temperature
  • Weather Map
  • Weather Widgets
  • user-avatar
    Login

    Hourly Weather Bolshoe Pulnikovo

    Today, 17 October, Thursday

    Time Temperature Precipitation Wind Pressure Humidity
    00:00 -1°C° 0 mm 5 mps 750 mmHg 87%
    01:00 -1°C° 0 mm 5 mps 750 mmHg 86%
    02:00 -2°C° 0 mm 4 mps 751 mmHg 86%
    03:00 -2°C° 0 mm 4 mps 752 mmHg 86%
    04:00 -2°C° 0 mm 4 mps 752 mmHg 89%
    05:00 -2°C° 0 mm 4 mps 752 mmHg 88%
    06:00 -2°C° 0 mm 4 mps 753 mmHg 87%
    07:00 -2°C° 0 mm 4 mps 753 mmHg 86%
    08:00 -1°C° 0 mm 4 mps 753 mmHg 82%
    09:00 -1°C° 0 mm 4 mps 754 mmHg 78%
    10:00 0°C° 0 mm 4 mps 754 mmHg 74%
    11:00 0°C° 0 mm 4 mps 754 mmHg 72%
    12:00 0°C° 0 mm 4 mps 754 mmHg 71%
    13:00 0°C° 0 mm 4 mps 754 mmHg 69%
    14:00 +1°C° 0 mm 3 mps 754 mmHg 71%
    15:00 +1°C° 0 mm 3 mps 754 mmHg 72%
    16:00 +2°C° 0 mm 2 mps 755 mmHg 74%
    17:00 +1°C° 0 mm 2 mps 754 mmHg 75%
    18:00 +1°C° 0 mm 2 mps 754 mmHg 77%
    19:00 +1°C° 0 mm 1 mps 754 mmHg 78%
    20:00 +1°C° 0 mm 1 mps 754 mmHg 79%
    21:00 -1°C° 0 mm 2 mps 754 mmHg 81%
    22:00 -1°C° 0 mm 2 mps 754 mmHg 82%
    23:00 -1°C° 0.1 mm 2 mps 753 mmHg 87%

    Tomorrow, 18 October, Friday

    Time Temperature Precipitation Wind Pressure Humidity
    00:00 -1°C° 0.1 mm 2 mps 753 mmHg 92%
    01:00 -1°C° 0.1 mm 2 mps 752 mmHg 97%
    02:00 -1°C° 0.2 mm 2 mps 752 mmHg 97%
    03:00 -1°C° 0.2 mm 2 mps 751 mmHg 97%
    04:00 -1°C° 0.2 mm 2 mps 751 mmHg 97%
    05:00 -1°C° 0.2 mm 2 mps 750 mmHg 97%
    06:00 -1°C° 0.2 mm 2 mps 750 mmHg 97%
    07:00 -1°C° 0.2 mm 2 mps 749 mmHg 97%
    08:00 0°C° 0.3 mm 3 mps 749 mmHg 97%
    09:00 0°C° 0.3 mm 3 mps 749 mmHg 97%
    10:00 0°C° 0.3 mm 3 mps 748 mmHg 97%
    11:00 0°C° 0.7 mm 3 mps 748 mmHg 97%
    12:00 -1°C° 0.7 mm 4 mps 748 mmHg 97%
    13:00 -1°C° 0.7 mm 4 mps 748 mmHg 97%
    14:00 -1°C° 0.2 mm 4 mps 748 mmHg 97%
    15:00 -1°C° 0.2 mm 4 mps 748 mmHg 97%
    16:00 -1°C° 0.2 mm 4 mps 748 mmHg 97%
    17:00 -2°C° 0.1 mm 4 mps 749 mmHg 96%
    18:00 -2°C° 0.1 mm 5 mps 749 mmHg 95%
    19:00 -2°C° 0.1 mm 5 mps 749 mmHg 94%
    20:00 -2°C° 0 mm 5 mps 750 mmHg 92%
    21:00 -2°C° 0 mm 5 mps 751 mmHg 90%
    22:00 -4°C° 0 mm 5 mps 751 mmHg 89%
    23:00 -5°C° 0 mm 5 mps 752 mmHg 88%

    Day after tomorrow, 19 October, Saturday

    Time Temperature Precipitation Wind Pressure Humidity
    00:00 -4°C° 0 mm 4 mps 752 mmHg 87%
    01:00 -5°C° 0 mm 4 mps 753 mmHg 86%
    02:00 -5°C° 0 mm 3 mps 753 mmHg 86%
    03:00 -6°C° 0 mm 3 mps 754 mmHg 86%
    04:00 -6°C° 0 mm 3 mps 755 mmHg 86%
    05:00 -6°C° 0 mm 3 mps 755 mmHg 86%
    06:00 -6°C° 0 mm 3 mps 756 mmHg 86%
    07:00 -6°C° 0 mm 3 mps 756 mmHg 85%
    08:00 -5°C° 0 mm 3 mps 756 mmHg 81%
    09:00 -5°C° 0 mm 3 mps 757 mmHg 77%
    10:00 -4°C° 0 mm 3 mps 758 mmHg 72%
    11:00 -2°C° 0 mm 3 mps 758 mmHg 70%
    12:00 -2°C° 0 mm 3 mps 758 mmHg 69%
    13:00 -2°C° 0 mm 3 mps 758 mmHg 67%
    14:00 -2°C° 0 mm 2 mps 758 mmHg 70%
    15:00 -2°C° 0 mm 2 mps 759 mmHg 72%
    16:00 -3°C° 0 mm 2 mps 759 mmHg 75%
    17:00 -1°C° 0 mm 1 mps 759 mmHg 77%
    18:00 -2°C° 0 mm 1 mps 760 mmHg 79%
    19:00 -2°C° 0 mm 1 mps 760 mmHg 81%
    20:00 -2°C° 0 mm 1 mps 760 mmHg 81%
    21:00 -3°C° 0 mm 1 mps 761 mmHg 81%
    22:00 -3°C° 0 mm 1 mps 761 mmHg 81%
    23:00 -3°C° 0 mm 1 mps 761 mmHg 82%

    20 October, Sunday

    Time Temperature Precipitation Wind Pressure Humidity
    00:00 -3°C° 0 mm 1 mps 761 mmHg 82%
    01:00 -3°C° 0 mm 1 mps 761 mmHg 83%
    02:00 -3°C° 0 mm 1 mps 761 mmHg 83%
    03:00 -3°C° 0 mm 1 mps 762 mmHg 83%
    04:00 -3°C° 0 mm 1 mps 762 mmHg 84%
    05:00 -5°C° 0 mm 2 mps 762 mmHg 84%
    06:00 -5°C° 0 mm 2 mps 762 mmHg 84%
    07:00 -5°C° 0 mm 2 mps 762 mmHg 84%
    08:00 -4°C° 0 mm 2 mps 762 mmHg 78%
    09:00 -4°C° 0 mm 3 mps 762 mmHg 72%
    10:00 -2°C° 0 mm 3 mps 762 mmHg 66%
    11:00 -2°C° 0 mm 4 mps 761 mmHg 64%
    12:00 -2°C° 0 mm 4 mps 761 mmHg 62%
    13:00 -1°C° 0 mm 4 mps 761 mmHg 60%
    14:00 -2°C° 0 mm 4 mps 760 mmHg 63%
    15:00 -2°C° 0 mm 4 mps 760 mmHg 65%
    16:00 -2°C° 0 mm 4 mps 760 mmHg 68%
    17:00 -3°C° 0 mm 4 mps 760 mmHg 70%
    18:00 -3°C° 0 mm 4 mps 760 mmHg 71%
    19:00 -3°C° 0 mm 4 mps 760 mmHg 73%
    20:00 -3°C° 0 mm 4 mps 759 mmHg 73%
    21:00 -3°C° 0 mm 4 mps 759 mmHg 74%
    22:00 -4°C° 0 mm 5 mps 759 mmHg 75%
    23:00 -4°C° 0 mm 5 mps 758 mmHg 76%

    21 October, Monday

    Time Temperature Precipitation Wind Pressure Humidity
    00:00 -4°C° 0 mm 5 mps 758 mmHg 78%
    01:00 -4°C° 0 mm 5 mps 757 mmHg 80%
    02:00 -4°C° 0 mm 5 mps 757 mmHg 81%
    03:00 -2°C° 0 mm 5 mps 756 mmHg 82%
    04:00 -2°C° 0 mm 5 mps 756 mmHg 83%
    05:00 -2°C° 0 mm 5 mps 755 mmHg 83%
    06:00 -1°C° 0 mm 5 mps 755 mmHg 84%
    07:00 -1°C° 0 mm 5 mps 754 mmHg 84%
    08:00 -2°C° 0.2 mm 6 mps 754 mmHg 84%
    09:00 -1°C° 0.2 mm 6 mps 753 mmHg 85%
    10:00 -1°C° 0.2 mm 6 mps 753 mmHg 86%
    11:00 +1°C° 1 mm 6 mps 752 mmHg 88%
    12:00 +1°C° 1 mm 6 mps 752 mmHg 90%
    13:00 +1°C° 1 mm 6 mps 752 mmHg 92%
    14:00 +1°C° 0.4 mm 5 mps 752 mmHg 92%
    15:00 +1°C° 0.4 mm 5 mps 751 mmHg 92%
    16:00 +3°C° 0.4 mm 4 mps 751 mmHg 93%
    17:00 +3°C° 0.6 mm 4 mps 751 mmHg 93%
    18:00 +3°C° 0.6 mm 4 mps 751 mmHg 94%
    19:00 +3°C° 0.6 mm 4 mps 751 mmHg 95%
    20:00 +3°C° 0.1 mm 4 mps 750 mmHg 95%
    21:00 +3°C° 0.1 mm 4 mps 750 mmHg 94%
    22:00 +3°C° 0.1 mm 3 mps 750 mmHg 94%
    23:00 +3°C° 0.1 mm 3 mps 749 mmHg 94%

    22 October, Tuesday

    Time Temperature Precipitation Wind Pressure Humidity
    00:00 +2°C° 0.1 mm 3 mps 748 mmHg 95%
    01:00 +2°C° 0.1 mm 3 mps 748 mmHg 95%
    02:00 +3°C° 1.2 mm 3 mps 747 mmHg 96%
    03:00 +3°C° 1.2 mm 4 mps 746 mmHg 96%
    04:00 +3°C° 1.2 mm 4 mps 746 mmHg 96%
    05:00 +3°C° 1.4 mm 5 mps 745 mmHg 95%
    06:00 +3°C° 1.4 mm 5 mps 744 mmHg 94%
    07:00 +4°C° 1.4 mm 6 mps 743 mmHg 93%
    08:00 +5°C° 0.3 mm 6 mps 743 mmHg 90%
    09:00 +7°C° 0.3 mm 6 mps 742 mmHg 88%
    10:00 +8°C° 0.3 mm 6 mps 742 mmHg 85%
    11:00 +8°C° 0 mm 6 mps 742 mmHg 85%
    12:00 +8°C° 0 mm 5 mps 742 mmHg 85%
    13:00 +10°C° 0 mm 4 mps 743 mmHg 85%
    14:00 +10°C° 0.1 mm 4 mps 743 mmHg 85%
    15:00 +8°C° 0.1 mm 4 mps 743 mmHg 86%
    16:00 +8°C° 0.1 mm 4 mps 743 mmHg 86%
    17:00 +7°C° 0 mm 4 mps 744 mmHg 87%
    18:00 +7°C° 0 mm 3 mps 744 mmHg 89%
    19:00 +7°C° 0 mm 3 mps 744 mmHg 90%
    20:00 +5°C° 0 mm 3 mps 744 mmHg 90%
    21:00 +5°C° 0 mm 3 mps 745 mmHg 90%
    22:00 +5°C° 0 mm 3 mps 745 mmHg 90%
    23:00 +4°C° 0 mm 3 mps 745 mmHg 90%
    Show more